sat.trackr.live / text

‹ back to catalog

STARLINK-31177

NORAD 58873 · 2024-019W

PAYLOAD ACTIVE UNKNOWN

§ Identity

Operator
Country
US
Launch date
2024-01-29
Launch site
AFETR
Launch vehicle
Mass (kg)
RCS (m²)

Purposes: comms

External: N2YO · Heavens-Above · Gunter

§ Orbital elements

Epoch: 2026-09-20T06:24:54.748512Z

Period
94.27 min
Inclination
42.9998°
Eccentricity
0.0001312
Mean motion
15.27566597 rev/d
Perigee alt
482.2 km
Apogee alt
484.0 km
Semi-major
6,861.2 km
B*
-8.0891e-5
RAAN
229.7777°
Arg perigee
260.1358°
Mean anomaly
99.9346°
Rev number
14,884

§ Raw data

STARLINK-311771 58873U 24019W   26263.26730033 -.00002486  00000+0 -80891-4 0  99912 58873  42.9998 229.7777 0001312 260.1358  99.9346 15.27566597148845

JSON: /api/v1/satellites/58873 · /tle

For live sub-satellite position, see the globe view (requires WebGL).

§ Visibility from observer

Set your observer location to see the next 7 days of passes ≥ 10°. The values pass through the URL so the page stays shareable.

No JS? Fill the form by hand. The geolocation button needs JavaScript.